GW5644 Weather Reports


Display with metric or nautical units.
time (UTC)temp
F
wind
direction
speed
MPH
gust
MPH
rain 1hr
in
rain 24hr
in
rain mn
in
humidity
%
barometer
mb
20260507231521 74 233 3.0 8.0 0.00 0.00 0.00 60 1013.9
20260507230036 74 264 2.0 8.0 0.00 0.00 0.00 59 1013.9
20260507224527 74 186 3.0 9.0 0.00 0.00 0.00 58 1014.0
20260507223042 74 275 3.0 9.0 0.00 0.00 0.00 60 1014.1
20260507221517 74 214 5.0 10.0 0.00 0.00 0.00 59 1014.1
20260507220018 74 194 3.0 12.0 0.00 0.00 0.00 61 1014.3
20260507214523 74 248 3.0 10.0 0.00 0.00 0.00 60 1014.4
20260507213026 75 196 4.0 9.0 0.00 0.00 0.00 58 1014.6
20260507211520 75 199 3.0 9.0 0.00 0.00 0.00 59 1014.6
20260507210021 74 184 2.0 8.0 0.00 0.00 0.00 58 1014.7
20260507204523 75 198 3.0 8.0 0.00 0.00 0.00 60 1015.1
20260507203034 75 250 3.0 8.0 0.00 0.00 0.00 60 1015.1
20260507201521 74 277 2.0 7.0 0.00 0.00 0.00 61 1015.2
20260507200044 75 275 4.0 9.0 0.00 0.00 0.00 59 1015.4
20260507194520 74 221 4.0 10.0 0.00 0.00 0.00 60 1015.5
20260507193039 75 352 2.0 9.0 0.00 0.00 0.00 59 1015.5
20260507191525 74 265 1.0 6.0 0.00 0.00 0.00 60 1015.6
20260507190017 73 205 2.0 9.0 0.00 0.00 0.00 62 1015.8
20260507184520 74 219 4.0 8.0 0.00 0.00 0.00 61 1016.1
20260507183009 74 229 1.0 5.0 0.00 0.00 0.00 59 1016.2
20260507181512 72 267 2.0 7.0 0.00 0.00 0.00 61 1016.2
20260507180016 72 186 3.0 8.0 0.00 0.00 0.00 63 1016.3
20260507174520 71 212 2.0 4.0 0.00 0.00 0.00 63 1016.4
20260507173021 70 209 2.0 6.0 0.00 0.00 0.00 65 1016.5
20260507171508 69 214 1.0 6.0 0.00 0.00 0.00 67 1016.5
20260507170010 69 213 0.0 3.0 0.00 0.00 0.00 67 1016.5
20260507164516 67 206 1.0 4.0 0.00 0.00 0.00 71 1016.7
20260507163020 67 194 2.0 4.0 0.00 0.00 0.00 71 1016.7
20260507161529 66 195 0.0 3.0 0.00 0.00 0.00 73 1016.8
20260507160010 65 220 1.0 4.0 0.00 0.00 0.00 74 1016.9
20260507154512 65 189 1.0 2.0 0.00 0.00 0.00 76 1016.9
20260507153020 63 136 0.0 3.0 0.00 0.00 0.00 78 1017.0
20260507151525 63 215 1.0 3.0 0.00 0.00 0.00 78 1017.0
20260507150007 62 187 1.0 3.0 0.00 0.00 0.00 79 1017.2
20260507144510 61 173 0.0 2.0 0.00 0.00 0.00 81 1017.1
20260507143020 59 207 2.0 2.0 0.00 0.00 0.00 82 1017.0
20260507141521 59 212 1.0 2.0 0.00 0.00 0.00 82 1016.8
20260507140025 58 109 0.0 2.0 0.00 0.00 0.00 86 1016.6
20260507134514 55 109 0.0 0.0 0.00 0.00 0.00 90 1016.5
20260507133014 53 109 0.0 0.0 0.00 0.00 0.00 90 1016.4
20260507131525 53 109 0.0 0.0 0.00 0.00 0.00 89 1016.1
20260507130040 54 109 0.0 0.0 0.00 0.00 0.00 89 1016.1
20260507124526 54 109 0.0 0.0 0.00 0.00 0.00 89 1015.9
20260507123011 54 109 0.0 0.0 0.00 0.00 0.00 89 1015.9
20260507121522 54 109 0.0 0.0 0.00 0.00 0.00 89 1016.0
20260507120033 54 109 0.0 0.0 0.00 0.00 0.00 89 1016.0
20260507114523 54 109 0.0 0.0 0.00 0.00 0.00 88 1016.0
20260507113028 54 109 0.0 0.0 0.00 0.00 0.00 88 1016.1
20260507111519 55 109 0.0 0.0 0.00 0.00 0.00 87 1016.1
20260507110028 55 109 0.0 0.0 0.00 0.00 0.00 87 1016.2
20260507104524 55 109 0.0 0.0 0.00 0.00 0.00 86 1016.2
20260507103028 55 109 0.0 0.0 0.00 0.00 0.00 85 1016.4
20260507101515 56 109 0.0 0.0 0.00 0.00 0.00 85 1016.3
20260507100023 56 109 0.0 0.0 0.00 0.00 0.00 85 1016.4
20260507094523 56 109 0.0 0.0 0.00 0.00 0.00 84 1016.6
20260507093025 57 109 0.0 1.0 0.00 0.00 0.00 84 1016.7
20260507091526 57 109 0.0 1.0 0.00 0.00 0.00 83 1016.9
20260507090019 57 109 0.0 0.0 0.00 0.00 0.00 83 1017.1
20260507084520 57 109 0.0 0.0 0.00 0.00 0.00 83 1017.2
20260507083029 58 109 0.0 0.0 0.00 0.00 0.00 82 1017.4
20260507081528 58 109 0.0 0.0 0.00 0.00 0.00 82 1017.4
20260507080030 58 109 0.0 1.0 0.00 0.00 0.00 83 1017.5
20260507074519 58 109 0.0 0.0 0.00 0.00 0.00 82 1017.4
20260507073022 59 109 0.0 0.0 0.00 0.00 0.00 81 1017.5
20260507071523 59 109 0.0 0.0 0.00 0.00 0.00 80 1017.5
20260507070036 60 109 0.0 0.0 0.00 0.00 0.00 80 1017.5
20260507064536 60 109 0.0 0.0 0.00 0.00 0.00 79 1017.7
20260507063029 60 109 0.0 0.0 0.00 0.00 0.00 78 1017.7
20260507061526 60 109 0.0 0.0 0.00 0.00 0.00 77 1017.7
20260507060028 61 109 0.0 0.0 0.00 0.00 0.00 77 1017.8
20260507054526 61 109 0.0 2.0 0.00 0.00 0.00 76 1017.7
20260507053018 62 212 0.0 0.0 0.00 0.00 0.00 76 1017.7
20260507051526 62 212 0.0 2.0 0.00 0.00 0.00 76 1017.5
20260507050036 62 204 0.0 0.0 0.00 0.00 0.00 74 1017.4
20260507044510 63 204 0.0 0.0 0.00 0.00 0.00 74 1017.5
20260507043018 64 204 0.0 2.0 0.00 0.00 0.00 73 1017.5
20260507041530 64 196 1.0 2.0 0.00 0.00 0.00 73 1017.4
20260507040025 64 190 0.0 2.0 0.00 0.00 0.00 72 1017.3
20260507034530 64 190 1.0 4.0 0.00 0.00 0.00 71 1017.1
20260507033016 65 179 0.0 3.0 0.00 0.00 0.00 70 1017.0
20260507031529 65 219 1.0 4.0 0.00 0.00 0.00 69 1016.8
20260507030022 65 196 1.0 4.0 0.00 0.00 0.00 69 1016.4
20260507024530 66 217 0.0 3.0 0.00 0.00 0.00 68 1016.4
20260507023028 66 209 2.0 4.0 0.00 0.00 0.00 67 1016.3
20260507021512 67 195 3.0 7.0 0.00 0.00 0.00 65 1016.2
20260507020026 68 205 1.0 4.0 0.00 0.00 0.00 62 1016.1
20260507014538 68 222 2.0 7.0 0.00 0.00 0.00 60 1016.0
20260507013026 69 234 2.0 5.0 0.00 0.00 0.00 59 1015.9
20260507011529 70 216 2.0 6.0 0.00 0.00 0.00 58 1015.8
20260507010018 71 206 2.0 5.0 0.00 0.00 0.00 57 1015.8
20260507004532 72 252 3.0 6.0 0.00 0.00 0.00 55 1015.8
20260507003031 72 284 2.0 7.0 0.00 0.00 0.00 54 1015.7
20260507001527 72 171 3.0 7.0 0.00 0.00 0.00 55 1015.6
20260507000024 72 230 5.0 9.0 0.00 0.00 0.00 55 1015.6
20260506234533 73 191 3.0 8.0 0.00 0.00 0.00 52 1015.5
20260506233022 74 168 3.0 7.0 0.00 0.00 0.00 51 1015.5